Location: Holyhead Bay
(53.3667°N, 4.6667°W)
Time: 19:18:54
(UTC+00:00)

Cosmos 2366 rocket - Pass Details

Date: 24 November 2020
Orbit: 955 x 997 km, 82.9° (Epoch: 17 January)

Event Time Altitude Azimuth Distance (km) Brightness Sun altitude
Rises 18:43:56 0° 348° (NNW) 3,688 7.1 -22.2°
Reaches altitude 10° 18:46:28 10° 347° (NNW) 2,730 6.4 -22.5°
Maximum altitude 18:52:41 76° 264° (W) 998 4.1 -23.5°
Drops below altitude 10° 18:58:50 10° 179° (S) 2,687 6.3 -24.4°
Sets 19:01:18 0° 178° (S) 3,625 7.0 -24.7°
